EW8328 Weather Reports


Display with metric or nautical units.
time (UTC)temp
F
wind
direction
speed
MPH
gust
MPH
rain 1hr
in
rain 24hr
in
rain mn
in
humidity
%
barometer
mb
20260502160351 62 292 1.0 5.0 0.00 0.00 0.00 64 1012.6
20260502151851 62 319 1.0 3.0 0.00 0.00 0.00 63 1012.9
20260502151351 62 286 2.0 3.0 0.00 0.00 0.00 63 1013.1
20260502150851 62 351 1.0 3.0 0.00 0.00 0.00 63 1013.1
20260502150350 62 323 2.0 3.0 0.00 0.00 0.00 63 1013.3
20260502130350 59 283 3.0 9.0 0.00 0.00 0.00 67 1014.2
20260502123351 58 302 2.0 5.0 0.00 0.00 0.00 73 1014.6
20260502122851 57 263 3.0 6.0 0.00 0.00 0.00 74 1014.6
20260502122351 56 248 3.0 6.0 0.00 0.00 0.00 74 1014.9
20260502121851 56 309 2.0 6.0 0.00 0.00 0.00 77 1015.0
20260502121350 55 290 1.0 3.0 0.00 0.00 0.00 78 1015.0
20260502120850 55 289 2.0 7.0 0.00 0.00 0.00 77 1015.3
20260502115850 55 260 3.0 8.0 0.00 0.00 0.00 76 1015.3
20260502115350 55 293 2.0 7.0 0.00 0.00 0.00 76 1015.4
20260502114851 55 259 3.0 7.0 0.00 0.00 0.00 77 1015.4
20260502113851 55 238 2.0 7.0 0.00 0.00 0.00 74 1015.3
20260502113350 55 222 5.0 8.0 0.00 0.00 0.00 75 1015.2
20260502112850 55 218 5.0 8.0 0.00 0.00 0.00 77 1015.2
20260502112350 55 240 3.0 6.0 0.00 0.00 0.00 78 1015.1
20260502111851 55 265 3.0 6.0 0.00 0.00 0.00 79 1015.1
20260502111351 54 245 3.0 6.0 0.00 0.00 0.00 79 1015.1
20260502110351 55 260 3.0 8.0 0.00 0.00 0.00 81 1015.1
20260502105851 54 251 3.0 6.0 0.00 0.00 0.00 80 1015.0
20260502105350 55 276 3.0 6.0 0.00 0.00 0.00 81 1015.2
20260502104850 54 254 3.0 7.0 0.00 0.00 0.00 82 1015.2
20260502104350 54 294 1.0 3.0 0.00 0.00 0.00 83 1015.3
20260502103851 54 248 2.0 5.0 0.00 0.00 0.00 83 1015.3
20260502103351 54 268 2.0 5.0 0.00 0.00 0.00 83 1015.3
20260502102851 53 250 3.0 7.0 0.00 0.00 0.00 84 1015.4
20260502102351 53 248 2.0 5.0 0.00 0.00 0.00 84 1015.5
20260502101850 53 260 3.0 8.0 0.00 0.00 0.00 83 1015.6
20260502101350 54 256 2.0 6.0 0.00 0.00 0.00 83 1015.4
20260502100851 53 304 2.0 3.0 0.00 0.00 0.00 83 1015.4
20260502091351 52 274 2.0 5.0 0.00 0.00 0.00 85 1015.7
20260502090850 52 295 2.0 3.0 0.00 0.00 0.00 85 1015.8
20260502090350 52 288 2.0 5.0 0.00 0.00 0.00 86 1015.8
20260502071350 50 273 1.0 3.0 0.00 0.00 0.00 88 1015.7
20260502070851 50 256 2.0 3.0 0.00 0.00 0.00 88 1015.7
20260502070350 50 270 1.0 3.0 0.00 0.00 0.00 88 1015.7
20260502065850 50 244 1.0 3.0 0.00 0.00 0.00 88 1015.7
20260502065350 50 261 1.0 2.0 0.00 0.00 0.00 88 1015.7
20260502063850 50 237 2.0 5.0 0.00 0.00 0.00 88 1015.7
20260502063350 50 254 2.0 3.0 0.00 0.00 0.00 89 1015.6
20260502062350 50 251 1.0 6.0 0.00 0.00 0.00 89 1015.5
20260502061850 50 267 2.0 3.0 0.00 0.00 0.00 89 1015.5
20260502061351 50 251 3.0 5.0 0.00 0.00 0.00 89 1015.6
20260502060850 50 264 2.0 6.0 0.00 0.00 0.00 89 1015.6
20260502060350 50 255 3.0 7.0 0.00 0.00 0.00 89 1015.6
20260502055851 50 263 2.0 3.0 0.00 0.00 0.00 89 1015.6
20260502055350 50 274 2.0 7.0 0.00 0.00 0.00 88 1015.6
20260502054350 50 273 2.0 3.0 0.00 0.00 0.00 88 1015.6
20260502053851 50 264 2.0 3.0 0.00 0.00 0.00 88 1015.6
20260502052850 50 263 2.0 6.0 0.00 0.00 0.00 88 1015.6
20260502051850 50 247 3.0 8.0 0.00 0.00 0.00 88 1015.6
20260502051350 50 260 4.0 9.0 0.00 0.00 0.00 88 1015.6
20260502050850 50 255 4.0 12.0 0.00 0.00 0.00 88 1015.6
20260502045851 50 273 5.0 9.0 0.00 0.00 0.00 88 1015.6
20260502044850 50 227 2.0 5.0 0.00 0.00 0.00 88 1015.6
20260502044350 50 277 1.0 3.0 0.00 0.00 0.00 88 1015.6
20260502043850 50 229 1.0 3.0 0.00 0.00 0.00 88 1015.6
20260502043350 50 207 1.0 2.0 0.00 0.00 0.00 88 1015.5
20260502042850 50 256 1.0 2.0 0.00 0.00 0.00 88 1015.6
20260502042350 50 263 1.0 3.0 0.00 0.00 0.00 88 1015.6
20260502041851 50 226 1.0 3.0 0.00 0.00 0.00 88 1015.6
20260502041350 50 264 2.0 3.0 0.00 0.00 0.00 88 1015.7
20260502040850 50 246 2.0 5.0 0.00 0.00 0.00 88 1015.6
20260502040350 50 265 2.0 6.0 0.00 0.00 0.00 88 1015.7
20260502035850 50 289 1.0 3.0 0.00 0.00 0.00 88 1015.7
20260502035350 50 284 1.0 3.0 0.00 0.00 0.00 88 1015.7
20260502034850 50 294 0.0 3.0 0.00 0.00 0.00 88 1015.7
20260502034350 50 268 1.0 3.0 0.00 0.00 0.00 89 1015.7
20260502033850 50 260 2.0 3.0 0.00 0.00 0.00 89 1015.7
20260502033350 50 302 1.0 3.0 0.00 0.00 0.00 89 1015.7
20260502032850 50 286 2.0 3.0 0.00 0.00 0.00 89 1015.7
20260502032350 50 230 1.0 3.0 0.00 0.00 0.00 90 1015.6
20260502031350 49 252 2.0 3.0 0.00 0.00 0.00 90 1015.6
20260502030350 49 272 1.0 3.0 0.00 0.00 0.00 90 1015.6
20260502025850 49 272 1.0 3.0 0.00 0.00 0.00 90 1015.6
20260502025350 49 269 1.0 3.0 0.00 0.00 0.00 90 1015.5
20260502024850 49 298 2.0 3.0 0.00 0.00 0.00 90 1015.5
20260502024349 49 291 1.0 3.0 0.00 0.00 0.00 90 1015.6
20260502023350 49 268 1.0 3.0 0.00 0.00 0.00 90 1015.6
20260502022850 49 285 2.0 3.0 0.00 0.00 0.00 90 1015.6
20260502022351 49 275 1.0 3.0 0.00 0.00 0.00 90 1015.7
20260502021850 49 279 1.0 5.0 0.00 0.00 0.00 91 1015.8
20260502021350 49 289 2.0 3.0 0.00 0.00 0.00 91 1015.8
20260502020849 49 277 2.0 3.0 0.00 0.00 0.00 90 1015.8
20260502015850 49 266 2.0 3.0 0.00 0.00 0.00 90 1015.9
20260502015349 49 257 3.0 6.0 0.00 0.00 0.00 90 1016.0
20260502014850 49 279 3.0 7.0 0.00 0.00 0.00 89 1016.1
20260502014349 50 260 3.0 7.0 0.00 0.00 0.00 89 1016.1
20260502013349 50 264 2.0 5.0 0.00 0.00 0.00 89 1016.1
20260502012849 50 259 2.0 7.0 0.00 0.00 0.00 89 1016.2
20260502012349 50 270 2.0 3.0 0.00 0.00 0.00 89 1016.3
20260502011851 50 266 3.0 6.0 0.00 0.00 0.00 88 1016.3
20260502011349 50 267 3.0 8.0 0.00 0.00 0.00 88 1016.3
20260502010850 51 264 2.0 8.0 0.00 0.00 0.00 88 1016.4
20260502010349 51 281 4.0 8.0 0.00 0.00 0.00 89 1016.5
20260502005850 51 274 4.0 10.0 0.00 0.00 0.00 89 1016.6
20260502005350 51 249 2.0 7.0 0.00 0.00 0.00 89 1016.7
20260502004850 51 255 3.0 9.0 0.00 0.00 0.00 89 1016.7
20260502004350 51 252 3.0 7.0 0.00 0.00 0.00 89 1016.8
20260502003850 51 262 2.0 16.0 0.00 0.00 0.00 90 1016.8
20260502003350 51 269 2.0 5.0 0.00 0.00 0.00 90 1016.8
20260502002850 51 249 3.0 5.0 0.00 0.00 0.00 90 1016.8
20260502000350 52 243 2.0 3.0 0.00 0.00 0.00 90 1016.8
20260501235350 52 292 1.0 3.0 0.00 0.00 0.00 90 1016.9
20260501233349 52 254 2.0 5.0 0.00 0.00 0.00 89 1016.7
20260501232850 52 275 2.0 5.0 0.00 0.00 0.00 90 1016.7
20260501232349 52 275 2.0 6.0 0.00 0.00 0.00 90 1016.7
20260501231850 52 265 2.0 7.0 0.00 0.00 0.00 90 1016.8
20260501231349 52 263 3.0 6.0 0.00 0.00 0.00 90 1016.8
20260501230934 52 285 3.0 6.0 0.00 0.00 0.00 90 1016.7
20260501230350 52 250 2.0 7.0 0.00 0.00 0.00 90 1016.7
20260501225349 52 256 3.0 7.0 0.00 0.00 0.00 90 1016.7
20260501224849 52 265 3.0 7.0 0.00 0.00 0.00 90 1016.7
20260501224350 52 260 3.0 7.0 0.00 0.00 0.00 90 1016.7
20260501223850 52 261 3.0 8.0 0.00 0.00 0.00 90 1016.7
20260501223350 52 252 4.0 7.0 0.00 0.00 0.00 91 1016.7
20260501222850 52 251 4.0 9.0 0.00 0.00 0.00 91 1016.7
20260501222350 52 248 3.0 7.0 0.00 0.00 0.00 91 1016.7
20260501221350 53 272 4.0 8.0 0.00 0.00 0.00 91 1016.6
20260501220350 53 266 3.0 9.0 0.00 0.00 0.00 91 1016.6
20260501215850 53 269 4.0 9.0 0.00 0.00 0.00 91 1016.6
20260501215349 53 275 2.0 7.0 0.00 0.00 0.00 91 1016.6
20260501214850 53 279 3.0 5.0 0.00 0.00 0.00 90 1016.7
20260501213850 53 247 3.0 6.0 0.00 0.00 0.00 90 1016.8
20260501213349 53 257 2.0 6.0 0.00 0.00 0.00 90 1016.8
20260501212850 53 263 2.0 3.0 0.00 0.00 0.00 90 1016.8
20260501212349 53 256 3.0 7.0 0.00 0.00 0.00 89 1016.8
20260501211850 53 261 3.0 7.0 0.00 0.00 0.00 89 1016.8
20260501211349 53 261 3.0 6.0 0.00 0.00 0.00 89 1016.8
20260501210851 53 267 2.0 6.0 0.00 0.00 0.00 89 1016.8
20260501205349 53 277 3.0 9.0 0.00 0.00 0.00 89 1016.7
20260501204850 53 267 3.0 7.0 0.00 0.00 0.00 88 1016.8
20260501204350 53 275 3.0 7.0 0.00 0.00 0.00 87 1016.8
20260501203350 54 279 3.0 8.0 0.00 0.00 0.00 86 1016.9
20260501202849 54 272 3.0 6.0 0.00 0.00 0.00 86 1017.0
20260501202349 54 263 3.0 7.0 0.00 0.00 0.00 85 1017.0
20260501201849 54 258 2.0 7.0 0.00 0.00 0.00 85 1017.1
20260501201349 54 280 2.0 5.0 0.00 0.00 0.00 84 1017.0
20260501195849 55 256 2.0 5.0 0.00 0.00 0.00 82 1017.1
20260501195349 55 264 3.0 6.0 0.00 0.00 0.00 82 1017.1
20260501194850 55 263 3.0 6.0 0.00 0.00 0.00 82 1017.0
20260501194350 55 269 3.0 6.0 0.00 0.00 0.00 82 1017.0
20260501193850 55 281 2.0 5.0 0.00 0.00 0.00 82 1017.0
20260501193351 55 261 2.0 5.0 0.00 0.00 0.00 81 1017.0
20260501192349 55 294 2.0 5.0 0.00 0.00 0.00 81 1017.0
20260501191851 56 275 2.0 5.0 0.00 0.00 0.00 80 1016.9
20260501191349 56 282 2.0 3.0 0.00 0.00 0.00 80 1016.9
20260501190850 56 276 3.0 5.0 0.00 0.00 0.00 80 1016.8
20260501190349 56 280 2.0 3.0 0.00 0.00 0.00 79 1016.9
20260501185849 56 283 2.0 7.0 0.00 0.00 0.00 79 1016.9
20260501185349 56 281 4.0 7.0 0.00 0.00 0.00 78 1016.9
20260501184349 57 270 5.0 10.0 0.00 0.00 0.00 76 1017.0
20260501183849 57 244 3.0 7.0 0.00 0.00 0.00 76 1017.0
20260501182349 57 246 5.0 12.0 0.00 0.00 0.00 74 1016.9
20260501181849 58 264 5.0 10.0 0.00 0.00 0.00 73 1016.8
20260501181349 58 269 6.0 10.0 0.00 0.00 0.00 73 1016.9
20260501180349 58 272 4.0 8.0 0.00 0.00 0.00 72 1016.7
20260501175849 59 263 6.0 13.0 0.00 0.00 0.00 71 1016.7
20260501175349 59 281 3.0 12.0 0.00 0.00 0.00 71 1016.6
20260501174849 59 265 4.0 10.0 0.00 0.00 0.00 71 1016.6
20260501174349 59 259 5.0 10.0 0.00 0.00 0.00 71 1016.6
20260501173850 60 278 4.0 10.0 0.00 0.00 0.00 71 1016.5
20260501173349 60 267 6.0 12.0 0.00 0.00 0.00 71 1016.6
20260501172850 60 256 5.0 10.0 0.00 0.00 0.00 71 1016.6
20260501170349 62 268 3.0 5.0 0.00 0.00 0.00 68 1016.5
20260501165849 62 295 2.0 5.0 0.00 0.00 0.00 67 1016.5
20260501165348 62 270 2.0 6.0 0.00 0.00 0.00 67 1016.5
20260501164849 62 274 3.0 5.0 0.00 0.00 0.00 66 1016.4
20260501164349 62 281 3.0 9.0 0.00 0.00 0.00 66 1016.4
20260501163849 62 272 3.0 6.0 0.00 0.00 0.00 65 1016.4
20260501163350 63 281 3.0 6.0 0.00 0.00 0.00 64 1016.4
20260501162850 63 287 4.0 7.0 0.00 0.00 0.00 64 1016.3
20260501162349 63 294 5.0 12.0 0.00 0.00 0.00 64 1016.3
20260501161850 64 295 3.0 6.0 0.00 0.00 0.00 63 1016.4
20260501161349 64 312 3.0 7.0 0.00 0.00 0.00 63 1016.4